Location: Fasanenhof
(48.7107°N, 9.1590°E)
Time: 13:04:15
(UTC+00:00)

Daily predictions for brighter satellites

Satellite Brightness Start Highest point End
(mag) Time Altitude Azimuth Time Altitude Azimuth Time Altitude Azimuth
Cosmos 1553 Rocket 4.0 18:45:16 10° N 18:51:28 83° E 18:57:34 10° S
Meteor 1-19 Rocket 4.4 18:47:18 10° N 18:53:14 85° ENE 18:59:03 10° SSE
Cosmos 2360 Rocket 3.2 18:49:46 10° SSE 18:54:05 23° ESE 18:58:26 10° NE
Cosmos 1980 Rocket 2.9 18:49:20 10° SW 18:54:53 62° WNW 19:00:28 10° NNE
COSMOS 2428 4.5 18:57:04 10° ESE 18:58:54 12° E 19:00:43 10° ENE
H-2A R/B 3.9 18:56:16 10° E 18:58:56 15° NE 19:01:35 10° NNE
Cosmos 2266 Rocket 4.3 18:53:26 10° SSE 18:59:04 43° E 19:04:44 10° NNE
Cosmos 220 Rocket 4.2 18:54:50 10° NNW 18:59:04 55° ENE 19:03:21 10° SE
SL-8 R/B 3.8 18:58:03 10° W 19:02:51 75° SSW 19:07:38 10° ESE
Cosmos 1025 Rocket 3.8 19:00:52 10° N 19:04:46 33° ENE 19:08:39 10° SE
Cosmos 2315 Rocket 4.5 18:58:58 10° N 19:04:54 43° ENE 19:10:50 10° SE
Cosmos 1300 Rocket 3.7 19:03:32 10° S 19:07:42 50° E 19:11:53 10° NNE
Okean 1 Rocket 3.7 19:04:20 10° SSE 19:08:19 36° E 19:12:20 10° NNE
CZ-4B DEB 4.0 19:06:07 10° ESE 19:08:22 21° ENE 19:10:38 10° NNE
SPOT 5 4.4 19:06:35 10° ESE 19:09:48 18° ENE 19:12:57 10° NNE
Lacrosse 5 2.4 19:05:42 10° SSW 19:10:18 36° SE 19:14:56 10° ENE
Meteor 1-5 Rocket 4.4 19:05:53 10° SSE 19:10:50 43° E 19:15:50 10° NNE
Meteor 2-4 Rocket 3.8 19:11:45 10° NNW 19:17:20 86° W 19:23:03 10° S
USA 215 4.1 19:11:45 10° ENE 19:18:05 54° NNW 19:24:25 10° W
NOSS 2-3 (C) 4.0 19:13:42 10° SSW 19:18:23 59° SE 19:23:57 10° NE
USA 186 2.9 19:15:15 10° S 19:18:32 48° W 19:21:48 10° NNW
SOZ 4.2 19:17:16 10° WNW 19:20:11 87° NNE 19:21:48 15° ESE
Okean 1-7 Rocket 4.0 19:16:13 10° N 19:20:34 46° ENE 19:24:55 10° SSE
EXPRESS MD2 3.0 19:19:04 10° SW 19:21:44 60° SSE 19:26:31 10° ENE
Cosmos 1452 Rocket 4.4 19:18:33 10° SW 19:23:44 54° WNW 19:28:56 10° NNE
SeaSat 1 2.7 19:19:08 10° NE 19:23:55 48° ESE 19:28:40 10° S
Cosmos 1420 Rocket 4.3 19:18:59 10° SSW 19:24:09 73° WNW 19:29:22 10° NNE
NOSS 3-2 (A) 4.4 19:18:01 10° NW 19:25:03 52° NE 19:32:07 13° ESE
Resurs 01 Rocket 3.0 19:23:27 10° SSW 19:27:39 40° W 19:31:52 10° NNW
USA 238 DEB 3.9 19:20:54 10° NW 19:28:01 76° NE 19:34:25 14° SE
USA 238 3.9 19:21:00 10° NW 19:28:07 75° NE 19:34:31 14° SE
Helios 1A 3.0 19:25:07 10° SSE 19:29:20 70° ENE 19:33:35 10° N
Cosmos 2151 Rocket 4.5 19:28:33 10° SSW 19:32:51 53° WNW 19:37:11 10° N
SAR-Lupe-4 4.2 19:30:25 15° SE 19:33:02 39° ENE 19:36:25 10° N
SJ-11-01 4.4 19:28:24 10° S 19:33:05 79° WSW 19:37:47 10° NNW
Cosmos 1536 2.9 19:29:39 10° S 19:33:43 87° W 19:37:49 10° N
Cosmos 1939 Rocket 3.1 19:30:39 10° S 19:34:34 67° WSW 19:38:30 10° NNW
Spot 1 4.5 19:32:11 10° SSE 19:37:18 73° ENE 19:42:17 10° N
Tiangong 1 3.4 19:36:40 10° SW 19:37:18 11° SSW 19:37:57 10° S
ATLAS 3B R/B 2.7 19:34:08 10° NW 19:40:58 87° SW 19:46:31 15° SE
Cosmos 405 4.2 19:42:03 20° ESE 19:43:15 24° E 19:46:12 10° NE
USA 245 4.3 19:42:04 18° SE 19:45:01 35° ENE 19:48:37 10° N
Terra 3.6 19:45:50 13° E 19:48:06 17° ENE 19:51:09 10° NNE
ARGOS 3.5 19:45:07 17° SE 19:49:07 51° ENE 19:54:19 10° N
SAR-Lupe-1 4.3 19:47:42 21° SE 19:49:48 51° ENE 19:53:20 10° N
ATLAS CENTAUR R/B 3.8 19:51:54 10° N 19:52:35 10° NNE 19:53:15 10° NNE
Cosmos 2263 Rocket 3.5 19:51:07 10° NW 19:56:19 37° WSW 20:01:29 10° S
Cosmos 1892 Rocket 3.8 19:52:35 10° N 19:56:56 52° ENE 19:59:26 23° SE
NOSS 2-3 (D) 4.1 19:53:27 10° SW 19:58:16 79° NW 20:04:06 10° NE
Cosmos 1818 4.4 19:53:49 10° S 19:58:23 28° ESE 20:03:00 10° NE
Molniya-1 3.5 19:57:26 10° NW 20:00:02 84° NE 20:01:25 32° SE
SPOT 1/Viking Rocket 4.2 19:57:09 21° ESE 20:00:07 40° ENE 20:05:00 10° N
Cosmos 2278 Rocket 3.3 19:56:42 10° NNW 20:01:46 32° NE 20:05:02 18° E
Cosmos 1844 Rocket 2.8 19:57:37 10° NNW 20:03:18 66° ENE 20:06:48 24° SE
Cosmos 1666 4.5 20:04:12 17° E 20:04:12 17° E 20:06:27 10° NE
NOSS 3-2 (C) 4.2 19:57:34 10° NW 20:04:48 63° NE 20:10:22 21° ESE
Cosmos 2322 Rocket 3.2 20:00:04 10° SW 20:05:36 51° NW 20:11:11 10° NNE
Abrixas rocket 2.3 20:04:10 10° W 20:07:25 61° SSW 20:08:21 40° SE
Helios 1B rocket 2.4 20:04:22 10° NNE 20:08:30 87° WNW 20:12:36 10° SSW
ERS-1 Rocket 3.0 20:06:47 17° SSE 20:10:43 83° WSW 20:15:47 10° NNW
Aureole 3 Rocket 4.4 20:03:56 10° N 20:12:43 77° ENE 20:17:27 20° SSE
Cosmos 2237 4.2 20:08:19 10° S 20:13:54 59° ESE 20:19:30 10° NE
Cosmos 1544 Rocket 3.9 20:12:28 28° SSE 20:14:21 46° E 20:18:37 10° NNE
Nadezhda 1 Rocket 4.3 20:09:56 10° N 20:16:05 50° ENE 20:19:25 26° SE
MetOp-B 4.1 20:13:10 19° SSE 20:17:04 85° WSW 20:22:28 10° NNW
SL-16 R/B 3.5 20:13:07 10° WSW 20:18:28 42° NW 20:23:52 10° NNE
Cosmos 1238 Rocket 4.1 20:14:32 10° N 20:21:20 89° ENE 20:25:59 20° S
Cosmos 2219 Rocket 2.9 20:20:52 29° SE 20:22:08 32° ESE 20:27:05 10° NE
Cosmos 1244 Rocket 4.4 20:16:19 10° S 20:22:29 84° E 20:28:39 10° N
Cosmos 1743 3.4 20:22:27 34° E 20:22:29 34° E 20:25:59 10° NNE
GP-B 4.2 20:20:29 10° NNE 20:24:15 26° E 20:24:35 26° E
ATLAS 2AS CENTAUR R/B 3.2 20:17:13 10° SW 20:25:05 80° NW 20:33:19 10° NE
Cosmos 1455 Rocket 3.2 20:25:06 35° SSE 20:26:38 53° E 20:31:00 10° NNE
CENTAUR R/B 3.7 20:22:01 10° NW 20:29:15 46° NE 20:34:53 20° E
Cosmos 2322 3.7 20:24:41 10° SSW 20:30:21 85° WNW 20:36:05 10° NNE
Cosmos 724 4.2 20:27:57 10° NW 20:33:55 88° ENE 20:36:34 34° SE
NOSS 3-4 (A) 4.0 20:34:38 32° SE 20:35:53 35° ESE 20:41:37 10° NE
NOSS 3-4 (C) 4.0 20:34:51 32° SE 20:35:59 34° ESE 20:41:43 10° NE
Meteor 1-29 4.0 20:33:08 10° N 20:36:26 45° WNW 20:39:13 13° SW
Cosmos 2360 Rocket 2.6 20:32:01 10° SW 20:37:37 64° WNW 20:43:14 10° NNE
H-2A R/B 1.9 20:35:24 34° SSE 20:37:40 85° ENE 20:42:38 10° NNW
Meteor 1-12 Rocket 4.1 20:34:42 21° S 20:38:35 77° E 20:44:15 10° NNE
SL-08 R/B 4.4 20:34:11 20° S 20:38:40 75° E 20:44:59 10° NNE
BREEZE-M DEB (TANK) 3.7 20:35:58 10° WSW 20:40:00 83° SSE 20:56:04 10° ENE
COSMOS 2428 2.6 20:36:24 10° SSW 20:42:06 70° ESE 20:47:48 10° NNE
Cosmos 1844 3.7 20:38:33 10° NNW 20:44:15 82° WSW 20:46:40 37° SSE
Cosmos 1302 Rocket 4.0 20:41:15 10° SSW 20:46:33 87° WNW 20:51:51 10° NNE
SPOT 5 3.0 20:45:21 32° S 20:47:29 66° WSW 20:52:04 10° NNW
BREEZE-M DEB (TANK) 4.4 20:25:59 10° SW 20:50:21 71° SSE 20:55:08 14° ENE
SL-08 RB Rocket 4.1 20:49:09 32° SSW 20:51:04 59° W 20:55:33 10° NNW
Cosmos 968 Rocket 4.1 20:46:31 10° NNW 20:51:23 41° ENE 20:52:36 35° E
Cosmos 1975 3.2 20:49:50 29° SSW 20:51:43 61° WNW 20:55:41 10° N
Lacrosse 5 2.3 20:48:04 10° WSW 20:53:06 62° NNW 20:58:10 10° NE
Cosmos 1500 4.5 20:51:10 16° SW 20:53:58 40° WNW 20:57:40 10° N
Cosmos 2333 Rocket 2.4 20:54:26 43° SE 20:55:10 46° ESE 21:00:33 10° NE
CARTOSAT-1 3.5 20:59:03 60° ESE 20:59:29 64° ENE 21:03:48 10° N
USA 215 4.3 20:54:21 10° ENE 21:00:27 43° N 21:06:34 10° WNW
SeaSat 1 4.2 20:56:54 10° NNE 21:01:18 33° NW 21:05:40 10° WSW
Cosmos 2333 4.1 20:56:33 12° SSW 21:01:45 89° ESE 21:07:25 10° NNE
DNEPR-1 R/B 4.5 20:58:57 10° NNW 21:03:05 41° NE 21:04:04 36° ENE
Cosmos 1602 Rocket 3.4 21:03:42 10° N 21:08:03 88° W 21:08:28 73° S
Cosmos 2237 Rocket 2.6 21:10:15 41° E 21:10:15 41° E 21:15:07 10° NE
Landsat 7 3.8 21:08:53 53° S 21:09:56 75° WSW 21:14:44 10° NNW
H-2A R/B 2.5 21:12:13 47° ENE 21:12:16 47° ENE 21:16:32 10° N
NOSS 0 Rocket 4.0 21:11:21 48° SE 21:12:22 53° ESE 21:18:25 10° NE
Cosmos 1745 Rocket 4.1 21:12:10 27° SSW 21:15:39 74° W 21:21:51 10° N
Cosmos 2292 Rocket 4.4 21:12:55 34° S 21:16:11 85° E 21:21:45 10° N
NOSS 3-2 (A) 4.3 21:08:58 10° NW 21:16:13 55° WSW 21:19:31 35° S
Meteor 1-4 Rocket 4.1 21:18:03 28° NE 21:18:03 28° NE 21:20:10 10° NNE
Cosmos 1980 3.8 21:16:31 50° ESE 21:16:33 50° ESE 21:22:02 10° NE
COSMOS 2455 3.5 21:13:37 10° NNW 21:19:26 47° NE 21:21:18 36° E
Cosmos 1437 Rocket 3.5 21:24:07 47° WSW 21:24:38 51° WNW 21:28:30 10° N
Terra 1.8 21:24:44 66° SSW 21:25:17 76° WSW 21:30:05 10° NNW
ARGOS Delta rocket 3.9 21:23:10 10° NNE 21:27:23 61° ENE 21:27:23 61° ENE
Aureole 2 Rocket 3.9 21:28:57 34° NNW 21:28:57 34° NNW 21:31:03 10° NNE
ATLAS 3B R/B 4.4 21:26:08 10° WNW 21:30:41 20° WSW 21:33:46 14° SW
DMSP B5D2-2 4.1 21:25:50 10° NNE 21:31:06 76° WNW 21:32:37 47° SSW
Cosmos 1626 Rocket 4.2 21:27:14 10° NNW 21:31:24 47° W 21:31:47 45° WSW
ATLAS CENTAUR R/B 4.0 21:15:37 10° WNW 21:31:37 61° NNE 21:34:53 29° E
ATLAS CENTAUR R/B 2.4 21:29:06 10° NNW 21:32:03 35° NNE 21:32:03 35° NNE
BREEZE M DEB (TANK) 4.4 21:16:15 10° WSW 21:33:50 67° SSE 21:36:03 38° E
Cosmos 2297 3.8 21:28:37 10° NNW 21:34:16 62° ENE 21:35:07 55° E
Cosmos 1666 3.7 21:39:09 41° WNW 21:39:13 41° WNW 21:42:55 10° N
EXPRESS MD2 4.2 21:35:46 10° W 21:39:48 80° N 21:45:06 21° E
Cosmos 1707 4.2 21:37:56 10° N 21:40:23 30° NE 21:40:23 30° NE
Cosmos 1818 4.1 21:36:17 10° SW 21:41:38 59° NW 21:47:03 10° NE
SL-24 R/B 4.5 21:38:36 10° N 21:43:05 63° ENE 21:43:05 63° ENE
RESURS DK-1 4.2 21:47:03 23° NE 21:47:03 23° NE 21:48:46 10° NE
Cosmos 2278 Rocket 2.5 21:40:37 10° NW 21:46:09 54° WSW 21:46:52 51° SW
Cosmos 1844 Rocket 4.4 21:42:21 10° NW 21:46:41 23° WSW 21:48:28 20° SW
IGS 5A 4.5 21:51:05 39° W 21:51:05 39° W 21:54:47 10° NNW
USA 81 4.1 21:46:02 10° N 21:51:18 68° W 21:51:50 63° SW
SL-08 ROCKET BODY 4.3 21:53:03 64° ESE 21:53:14 65° E 21:59:02 10° NNE
Cosmos 1825 Rocket 3.9 21:50:31 10° NNW 21:54:10 61° NNW 21:54:10 61° NNW
CZ-2C R/B 3.4 21:58:11 49° NE 21:58:11 49° NE 22:02:32 10° N
Cosmos 1777 Rocket 4.0 21:53:41 10° NNW 21:58:57 69° ENE 21:58:57 69° ENE
Cosmos 2184 Rocket 4.2 22:00:03 53° E 22:00:09 53° E 22:06:11 10° NNE
CZ-2C R/B 3.7 21:55:32 10° NNE 21:59:34 34° ENE 21:59:34 34° ENE
Cosmos 2074 Rocket 4.1 22:00:28 56° E 22:00:41 56° E 22:06:47 10° NNE
Spot 4 4.0 22:01:01 68° WNW 22:01:01 68° WNW 22:05:32 10° NNW
GP-B 4.3 21:57:35 10° NNW 22:01:38 35° W 22:02:03 35° W
Cosmos 1340 Rocket 4.1 21:59:19 10° N 22:01:50 35° NNE 22:01:50 35° NNE
Cosmos 2058 Rocket 4.3 22:07:00 33° NE 22:07:00 33° NE 22:09:44 10° NNE
Cosmos 2219 Rocket 3.0 22:02:31 22° WSW 22:05:53 49° NW 22:11:23 10° NNE
Cosmos 1758 Rocket 4.2 22:06:43 10° NNW 22:10:08 53° NNW 22:10:08 53° NNW
H-2A R/B 4.3 22:16:03 12° WSW 22:17:44 14° W 22:20:18 10° WNW
SL-16 R/B 2.5 22:20:09 53° ENE 22:20:09 53° ENE 22:24:46 10° NNE
CENTAUR R/B 3.1 22:12:45 10° NW 22:20:29 67° SW 22:22:03 57° S
Meteor 1-24 Rocket 4.0 22:17:17 10° N 22:23:05 61° ENE 22:23:11 61° E
Cosmos 1943 Rocket 3.9 22:21:28 10° N 22:25:51 23° NE 22:27:49 19° ENE
CZ-4 R/B 4.2 22:21:18 10° N 22:25:46 59° NW 22:25:46 59° NW
NOSS 3-4 (A) 3.9 22:21:56 19° WSW 22:26:28 60° NW 22:33:01 10° NE
NOSS 3-4 (C) 3.9 22:22:10 20° WSW 22:26:34 61° NW 22:33:08 10° NE
Meteor 2-13 Rocket 4.4 22:28:38 70° SW 22:29:13 76° W 22:35:24 10° N
Meteor 2-5 Rocket 3.8 22:26:51 10° NNW 22:32:46 77° W 22:32:50 77° WSW
Cosmos 1610 Rocket 4.5 22:33:48 67° E 22:33:48 67° E 22:40:01 10° NNE
Lacrosse 5 3.5 22:32:14 10° WNW 22:36:50 33° N 22:41:26 10° ENE
Cosmos 2333 Rocket 3.5 22:36:22 20° WSW 22:39:35 36° NW 22:44:47 10° NNE
ALOS 2 3.6 22:42:47 46° N 22:42:47 46° N 22:45:55 10° NNW
USA 215 3.6 22:39:36 30° E 22:42:54 62° NNE 22:49:21 10° NW
H-2A R/B 4.2 22:49:21 20° WNW 22:49:21 20° WNW 22:51:53 10° NW
In-Cosmos 22 4.3 22:46:36 10° N 22:51:19 68° NNE 22:51:19 68° NNE
Cosmos 2369 Rocket 2.7 22:46:53 10° NNW 22:52:28 50° NE 22:52:46 49° ENE
Cosmos 1898 Rocket 4.2 22:48:25 10° NNW 22:53:18 47° NE 22:53:18 47° NE
Cosmos 2237 Rocket 3.3 22:52:01 30° W 22:53:57 39° NW 22:59:14 10° NNE
CZ-4B R/B 4.3 22:54:04 10° N 22:58:17 42° WNW 22:58:17 42° WNW
Cosmos 2154 Rocket 3.9 22:59:43 80° E 22:59:43 80° E 23:05:50 10° N
COSMOS 2455 3.7 22:59:45 10° NW 23:04:26 38° W 23:04:26 38° W
Mayak 0.5 23:02:39 10° NNE 23:04:50 29° NNE 23:04:50 29° NNE
ATLAS CENTAUR R/B 4.1 23:08:18 10° WNW 23:08:18 10° WNW 23:08:18 10° WNW
RESURS DK-1 4.5 23:22:56 22° NW 23:23:02 22° NW 23:26:21 10° N
Cosmos 1953 4.3 23:28:01 26° NNE 23:28:01 26° NNE 23:29:55 10° NNE
SL-8 Rocket 4.1 23:26:40 61° E 23:26:40 61° E 23:32:40 10° NNE
Cosmos 962 Rocket 4.4 23:34:40 78° W 23:34:40 78° W 23:41:01 10° N
Cosmos 2298 Rocket 4.3 23:31:05 10° NNW 23:35:40 64° N 23:35:40 64° N
Cosmos 2218 Rocket 4.1 23:39:56 65° E 23:40:02 65° E 23:46:22 10° NNE
CZ-2C R/B 3.6 23:35:50 10° N 23:40:49 39° WNW 23:41:04 39° WNW
Cosmos 2263 4.3 23:40:50 10° NNW 23:45:50 71° NNW 23:45:50 71° NNW
